owner,sensor,date,latitude,longitude,relative_humidity,qcFlag 
LUMCON,ioos:station:LUMCON:105:1,2010-10-01T00:00:00Z,29.1874,-90.6654,48.0,1111122 
LUMCON,ioos:station:LUMCON:105:1,2010-10-01T01:00:00Z,29.1874,-90.6654,57.7,1111122 
LUMCON,ioos:station:LUMCON:105:1,2010-10-01T02:00:00Z,29.1874,-90.6654,60.5,1111122 
LUMCON,ioos:station:LUMCON:105:1,2010-10-01T03:00:00Z,29.1874,-90.6654,60.1,1111122 
LUMCON,ioos:station:LUMCON:105:1,2010-10-01T04:00:00Z,29.1874,-90.6654,61.1,1111122 
LUMCON,ioos:station:LUMCON:105:1,2010-10-01T05:00:00Z,29.1874,-90.6654,64.2,1111122 
LUMCON,ioos:station:LUMCON:105:1,2010-10-01T06:00:00Z,29.1874,-90.6654,65.4,1111122 
LUMCON,ioos:station:LUMCON:105:1,2010-10-01T07:00:00Z,29.1874,-90.6654,67.1,1111122 
LUMCON,ioos:station:LUMCON:105:1,2010-10-01T08:00:00Z,29.1874,-90.6654,64.1,1111122 
LUMCON,ioos:station:LUMCON:105:1,2010-10-01T09:00:00Z,29.1874,-90.6654,66.1,1111122 
LUMCON,ioos:station:LUMCON:105:1,2010-10-01T10:00:00Z,29.1874,-90.6654,66.1,1111122 
LUMCON,ioos:station:LUMCON:105:1,2010-10-01T11:00:00Z,29.1874,-90.6654,67.8,1111122 
LUMCON,ioos:station:LUMCON:105:1,2010-10-01T12:00:00Z,29.1874,-90.6654,68.6,1111122 
LUMCON,ioos:station:LUMCON:105:1,2010-10-01T13:00:00Z,29.1874,-90.6654,69.6,1111122 
LUMCON,ioos:station:LUMCON:105:1,2010-10-01T19:00:00Z,29.1874,-90.6654,43.6,1111122 
LUMCON,ioos:station:LUMCON:105:1,2010-10-02T00:00:00Z,29.1874,-90.6654,51.6,1111122 
LUMCON,ioos:station:LUMCON:105:1,2010-10-02T01:00:00Z,29.1874,-90.6654,54.4,1111122 
LUMCON,ioos:station:LUMCON:105:1,2010-10-02T02:00:00Z,29.1874,-90.6654,52.7,1111122 
LUMCON,ioos:station:LUMCON:105:1,2010-10-02T03:00:00Z,29.1874,-90.6654,54.9,1111122 
LUMCON,ioos:station:LUMCON:105:1,2010-10-02T13:00:00Z,29.1874,-90.6654,69.7,1111122 
LUMCON,ioos:station:LUMCON:105:1,2010-10-02T14:00:00Z,29.1874,-90.6654,63.8,1111122 
LUMCON,ioos:station:LUMCON:105:1,2010-10-03T00:00:00Z,29.1874,-90.6654,49.8,1111122 
LUMCON,ioos:station:LUMCON:105:1,2010-10-03T01:00:00Z,29.1874,-90.6654,56.9,1111122 
LUMCON,ioos:station:LUMCON:105:1,2010-10-03T02:00:00Z,29.1874,-90.6654,60.7,1111122 
LUMCON,ioos:station:LUMCON:105:1,2010-10-03T03:00:00Z,29.1874,-90.6654,59.4,1111122 
LUMCON,ioos:station:LUMCON:105:1,2010-10-07T03:00:00Z,29.1874,-90.6654,72.5,1111122 
LUMCON,ioos:station:LUMCON:105:1,2010-10-07T04:00:00Z,29.1874,-90.6654,73.2,1111122 
LUMCON,ioos:station:LUMCON:105:1,2010-10-08T01:00:00Z,29.1874,-90.6654,60.5,1111122 
LUMCON,ioos:station:LUMCON:105:1,2010-10-08T02:00:00Z,29.1874,-90.6654,64.4,1111122 
LUMCON,ioos:station:LUMCON:105:1,2010-10-08T03:00:00Z,29.1874,-90.6654,74.5,1111122 
LUMCON,ioos:station:LUMCON:105:1,2010-10-08T04:00:00Z,29.1874,-90.6654,75.8,1111122 
LUMCON,ioos:station:LUMCON:105:1,2010-10-08T05:00:00Z,29.1874,-90.6654,74.3,1111122 
LUMCON,ioos:station:LUMCON:105:1,2010-10-08T06:00:00Z,29.1874,-90.6654,75.2,1111122 
LUMCON,ioos:station:LUMCON:105:1,2010-10-08T07:00:00Z,29.1874,-90.6654,76.1,1111122 
LUMCON,ioos:station:LUMCON:105:1,2010-10-08T08:00:00Z,29.1874,-90.6654,76.0,1111122 
LUMCON,ioos:station:LUMCON:105:1,2010-10-08T09:00:00Z,29.1874,-90.6654,79.9,1111122 
LUMCON,ioos:station:LUMCON:105:1,2010-10-08T10:00:00Z,29.1874,-90.6654,78.9,1111122 
LUMCON,ioos:station:LUMCON:105:1,2010-10-08T17:00:00Z,29.1874,-90.6654,52.9,1111122 
LUMCON,ioos:station:LUMCON:105:1,2010-10-08T19:00:00Z,29.1874,-90.6654,54.2,1111122 
LUMCON,ioos:station:LUMCON:105:1,2010-10-08T21:00:00Z,29.1874,-90.6654,51.2,1111122 
LUMCON,ioos:station:LUMCON:105:1,2010-10-08T22:00:00Z,29.1874,-90.6654,54.6,1111122 
LUMCON,ioos:station:LUMCON:105:1,2010-10-08T23:00:00Z,29.1874,-90.6654,57.4,1111122 
LUMCON,ioos:station:LUMCON:105:1,2010-10-09T00:00:00Z,29.1874,-90.6654,58.7,1111122 
LUMCON,ioos:station:LUMCON:105:1,2010-10-09T01:00:00Z,29.1874,-90.6654,64.8,1111122 
LUMCON,ioos:station:LUMCON:105:1,2010-10-09T02:00:00Z,29.1874,-90.6654,67.7,1111122 
LUMCON,ioos:station:LUMCON:105:1,2010-10-09T03:00:00Z,29.1874,-90.6654,75.3,1111122 
LUMCON,ioos:station:LUMCON:105:1,2010-10-09T04:00:00Z,29.1874,-90.6654,74.3,1111122 
LUMCON,ioos:station:LUMCON:105:1,2010-10-09T05:00:00Z,29.1874,-90.6654,79.0,1111122 
LUMCON,ioos:station:LUMCON:105:1,2010-10-09T06:00:00Z,29.1874,-90.6654,80.4,1111122 
LUMCON,ioos:station:LUMCON:105:1,2010-10-09T07:00:00Z,29.1874,-90.6654,83.5,1111122 
LUMCON,ioos:station:LUMCON:105:1,2010-10-09T08:00:00Z,29.1874,-90.6654,79.3,1111122 
LUMCON,ioos:station:LUMCON:105:1,2010-10-09T09:00:00Z,29.1874,-90.6654,82.3,1111122 
LUMCON,ioos:station:LUMCON:105:1,2010-10-09T10:00:00Z,29.1874,-90.6654,85.0,1111122 
LUMCON,ioos:station:LUMCON:105:1,2010-10-09T11:00:00Z,29.1874,-90.6654,85.0,1111122 
LUMCON,ioos:station:LUMCON:105:1,2010-10-09T12:00:00Z,29.1874,-90.6654,85.0,1111122 
LUMCON,ioos:station:LUMCON:105:1,2010-10-09T13:00:00Z,29.1874,-90.6654,82.3,1111122 
LUMCON,ioos:station:LUMCON:105:1,2010-10-09T14:00:00Z,29.1874,-90.6654,72.6,1111122 
LUMCON,ioos:station:LUMCON:105:1,2010-10-09T15:00:00Z,29.1874,-90.6654,62.1,1111122 
LUMCON,ioos:station:LUMCON:105:1,2010-10-09T16:00:00Z,29.1874,-90.6654,59.6,1111122 
LUMCON,ioos:station:LUMCON:105:1,2010-10-09T17:00:00Z,29.1874,-90.6654,53.4,1111122 
LUMCON,ioos:station:LUMCON:105:1,2010-10-11T15:00:00Z,29.1874,-90.6654,72.3,1111122 
LUMCON,ioos:station:LUMCON:105:1,2010-10-11T16:00:00Z,29.1874,-90.6654,68.8,1111122 
LUMCON,ioos:station:LUMCON:105:1,2010-10-11T17:00:00Z,29.1874,-90.6654,65.6,1111122 
LUMCON,ioos:station:LUMCON:105:1,2010-10-11T18:00:00Z,29.1874,-90.6654,63.6,1111122 
LUMCON,ioos:station:LUMCON:105:1,2010-10-11T19:00:00Z,29.1874,-90.6654,65.7,1111122 
LUMCON,ioos:station:LUMCON:105:1,2010-10-11T20:00:00Z,29.1874,-90.6654,65.6,1111122 
LUMCON,ioos:station:LUMCON:105:1,2010-10-11T21:00:00Z,29.1874,-90.6654,66.1,1111122 
LUMCON,ioos:station:LUMCON:105:1,2010-10-11T22:00:00Z,29.1874,-90.6654,66.5,1111122 
LUMCON,ioos:station:LUMCON:105:1,2010-10-11T23:00:00Z,29.1874,-90.6654,67.3,1111122 
LUMCON,ioos:station:LUMCON:105:1,2010-10-12T00:00:00Z,29.1874,-90.6654,68.0,1111122 
LUMCON,ioos:station:LUMCON:105:1,2010-10-12T01:00:00Z,29.1874,-90.6654,68.5,1111122 
LUMCON,ioos:station:LUMCON:105:1,2010-10-12T02:00:00Z,29.1874,-90.6654,69.3,1111122 
LUMCON,ioos:station:LUMCON:105:1,2010-10-12T03:00:00Z,29.1874,-90.6654,70.6,1111122 
LUMCON,ioos:station:LUMCON:105:1,2010-10-12T04:00:00Z,29.1874,-90.6654,70.6,1111122 
LUMCON,ioos:station:LUMCON:105:1,2010-10-12T05:00:00Z,29.1874,-90.6654,71.5,1111122 
LUMCON,ioos:station:LUMCON:105:1,2010-10-12T06:00:00Z,29.1874,-90.6654,71.0,1111122 
LUMCON,ioos:station:LUMCON:105:1,2010-10-12T07:00:00Z,29.1874,-90.6654,72.3,1111122 
LUMCON,ioos:station:LUMCON:105:1,2010-10-12T08:00:00Z,29.1874,-90.6654,74.1,1111122 
LUMCON,ioos:station:LUMCON:105:1,2010-10-12T09:00:00Z,29.1874,-90.6654,76.9,1111122 
LUMCON,ioos:station:LUMCON:105:1,2010-10-12T10:00:00Z,29.1874,-90.6654,79.7,1111122 
LUMCON,ioos:station:LUMCON:105:1,2010-10-12T11:00:00Z,29.1874,-90.6654,80.2,1111122 
LUMCON,ioos:station:LUMCON:105:1,2010-10-12T12:00:00Z,29.1874,-90.6654,86.1,1111122 
LUMCON,ioos:station:LUMCON:105:1,2010-10-12T13:00:00Z,29.1874,-90.6654,77.5,1111122 
LUMCON,ioos:station:LUMCON:105:1,2010-10-12T14:00:00Z,29.1874,-90.6654,77.5,1111122 
LUMCON,ioos:station:LUMCON:105:1,2010-10-12T15:00:00Z,29.1874,-90.6654,69.5,1111122 
LUMCON,ioos:station:LUMCON:105:1,2010-10-12T16:00:00Z,29.1874,-90.6654,60.3,1111122 
LUMCON,ioos:station:LUMCON:105:1,2010-10-12T17:00:00Z,29.1874,-90.6654,64.2,1111122 
LUMCON,ioos:station:LUMCON:105:1,2010-10-12T18:00:00Z,29.1874,-90.6654,65.9,1111122 
LUMCON,ioos:station:LUMCON:105:1,2010-10-12T19:00:00Z,29.1874,-90.6654,65.9,1111122 
LUMCON,ioos:station:LUMCON:105:1,2010-10-12T20:00:00Z,29.1874,-90.6654,66.0,1111122 
LUMCON,ioos:station:LUMCON:105:1,2010-10-12T21:00:00Z,29.1874,-90.6654,66.1,1111122 
LUMCON,ioos:station:LUMCON:105:1,2010-10-12T22:00:00Z,29.1874,-90.6654,66.6,1111122 
LUMCON,ioos:station:LUMCON:105:1,2010-10-12T23:00:00Z,29.1874,-90.6654,71.6,1111122 
LUMCON,ioos:station:LUMCON:105:1,2010-10-13T00:00:00Z,29.1874,-90.6654,76.5,1111122 
LUMCON,ioos:station:LUMCON:105:1,2010-10-13T01:00:00Z,29.1874,-90.6654,79.9,1111122 
LUMCON,ioos:station:LUMCON:105:1,2010-10-13T02:00:00Z,29.1874,-90.6654,81.3,1111122 
LUMCON,ioos:station:LUMCON:105:1,2010-10-13T03:00:00Z,29.1874,-90.6654,84.4,1111122 
LUMCON,ioos:station:LUMCON:105:1,2010-10-13T04:00:00Z,29.1874,-90.6654,85.4,1111122 
LUMCON,ioos:station:LUMCON:105:1,2010-10-13T05:00:00Z,29.1874,-90.6654,87.5,1111122 
LUMCON,ioos:station:LUMCON:105:1,2010-10-13T06:00:00Z,29.1874,-90.6654,87.5,1111122 
LUMCON,ioos:station:LUMCON:105:1,2010-10-13T07:00:00Z,29.1874,-90.6654,88.0,1111122 
LUMCON,ioos:station:LUMCON:105:1,2010-10-13T08:00:00Z,29.1874,-90.6654,89.1,1111122 
LUMCON,ioos:station:LUMCON:105:1,2010-10-13T09:00:00Z,29.1874,-90.6654,87.4,1111122 
LUMCON,ioos:station:LUMCON:105:1,2010-10-13T10:00:00Z,29.1874,-90.6654,83.6,1111122 
LUMCON,ioos:station:LUMCON:105:1,2010-10-13T11:00:00Z,29.1874,-90.6654,82.0,1111122 
LUMCON,ioos:station:LUMCON:105:1,2010-10-13T12:00:00Z,29.1874,-90.6654,78.4,1111122 
LUMCON,ioos:station:LUMCON:105:1,2010-10-13T14:00:00Z,29.1874,-90.6654,70.1,1111122 
LUMCON,ioos:station:LUMCON:105:1,2010-10-13T15:00:00Z,29.1874,-90.6654,61.9,1111122 
LUMCON,ioos:station:LUMCON:105:1,2010-10-13T16:00:00Z,29.1874,-90.6654,57.1,1111122 
LUMCON,ioos:station:LUMCON:105:1,2010-10-14T00:00:00Z,29.1874,-90.6654,54.5,1111122 
LUMCON,ioos:station:LUMCON:105:1,2010-10-14T01:00:00Z,29.1874,-90.6654,61.3,1111122 
LUMCON,ioos:station:LUMCON:105:1,2010-10-14T02:00:00Z,29.1874,-90.6654,64.4,1111122 
LUMCON,ioos:station:LUMCON:105:1,2010-10-14T03:00:00Z,29.1874,-90.6654,66.8,1111122 
LUMCON,ioos:station:LUMCON:105:1,2010-10-14T04:00:00Z,29.1874,-90.6654,68.9,1111122 
LUMCON,ioos:station:LUMCON:105:1,2010-10-14T05:00:00Z,29.1874,-90.6654,68.5,1111122 
LUMCON,ioos:station:LUMCON:105:1,2010-10-14T06:00:00Z,29.1874,-90.6654,71.5,1111122 
LUMCON,ioos:station:LUMCON:105:1,2010-10-14T07:00:00Z,29.1874,-90.6654,72.8,1111122 
LUMCON,ioos:station:LUMCON:105:1,2010-10-14T08:00:00Z,29.1874,-90.6654,74.6,1111122 
LUMCON,ioos:station:LUMCON:105:1,2010-10-14T09:00:00Z,29.1874,-90.6654,74.1,1111122 
LUMCON,ioos:station:LUMCON:105:1,2010-10-14T10:00:00Z,29.1874,-90.6654,74.5,1111122 
LUMCON,ioos:station:LUMCON:105:1,2010-10-14T11:00:00Z,29.1874,-90.6654,74.5,1111122 
LUMCON,ioos:station:LUMCON:105:1,2010-10-14T12:00:00Z,29.1874,-90.6654,74.9,1111122 
LUMCON,ioos:station:LUMCON:105:1,2010-10-14T13:00:00Z,29.1874,-90.6654,74.4,1111122 
LUMCON,ioos:station:LUMCON:105:1,2010-10-14T14:00:00Z,29.1874,-90.6654,74.4,1111122 
LUMCON,ioos:station:LUMCON:105:1,2010-10-14T15:00:00Z,29.1874,-90.6654,73.1,1111122 
LUMCON,ioos:station:LUMCON:105:1,2010-10-14T16:00:00Z,29.1874,-90.6654,71.4,1111122 
LUMCON,ioos:station:LUMCON:105:1,2010-10-14T17:00:00Z,29.1874,-90.6654,66.4,1111122 
LUMCON,ioos:station:LUMCON:105:1,2010-10-14T18:00:00Z,29.1874,-90.6654,59.8,1111122 
LUMCON,ioos:station:LUMCON:105:1,2010-10-14T19:00:00Z,29.1874,-90.6654,53.2,1111122 
LUMCON,ioos:station:LUMCON:105:1,2010-10-14T20:00:00Z,29.1874,-90.6654,47.9,1111122 
LUMCON,ioos:station:LUMCON:105:1,2010-10-14T21:00:00Z,29.1874,-90.6654,45.0,1111122 
LUMCON,ioos:station:LUMCON:105:1,2010-10-14T23:00:00Z,29.1874,-90.6654,50.1,1111122 
LUMCON,ioos:station:LUMCON:105:1,2010-10-15T00:00:00Z,29.1874,-90.6654,58.8,1111122 
LUMCON,ioos:station:LUMCON:105:1,2010-10-15T01:00:00Z,29.1874,-90.6654,64.5,1111122 
LUMCON,ioos:station:LUMCON:105:1,2010-10-15T02:00:00Z,29.1874,-90.6654,64.2,1111122 
LUMCON,ioos:station:LUMCON:105:1,2010-10-15T03:00:00Z,29.1874,-90.6654,61.6,1111122 
LUMCON,ioos:station:LUMCON:105:1,2010-10-15T04:00:00Z,29.1874,-90.6654,58.4,1111122 
LUMCON,ioos:station:LUMCON:105:1,2010-10-15T05:00:00Z,29.1874,-90.6654,57.1,1111122 
LUMCON,ioos:station:LUMCON:105:1,2010-10-15T06:00:00Z,29.1874,-90.6654,53.7,1111122 
LUMCON,ioos:station:LUMCON:105:1,2010-10-15T07:00:00Z,29.1874,-90.6654,56.1,1111122 
LUMCON,ioos:station:LUMCON:105:1,2010-10-15T08:00:00Z,29.1874,-90.6654,57.1,1111122 
LUMCON,ioos:station:LUMCON:105:1,2010-10-15T09:00:00Z,29.1874,-90.6654,60.5,1111122 
LUMCON,ioos:station:LUMCON:105:1,2010-10-15T10:00:00Z,29.1874,-90.6654,60.9,1111122 
LUMCON,ioos:station:LUMCON:105:1,2010-10-15T11:00:00Z,29.1874,-90.6654,60.5,1111122 
LUMCON,ioos:station:LUMCON:105:1,2010-10-15T12:00:00Z,29.1874,-90.6654,64.5,1111122 
LUMCON,ioos:station:LUMCON:105:1,2010-10-15T13:00:00Z,29.1874,-90.6654,64.5,1111122 
LUMCON,ioos:station:LUMCON:105:1,2010-10-15T15:00:00Z,29.1874,-90.6654,54.0,1111122 
LUMCON,ioos:station:LUMCON:105:1,2010-10-15T16:00:00Z,29.1874,-90.6654,46.5,1111122 
LUMCON,ioos:station:LUMCON:105:1,2010-10-15T17:00:00Z,29.1874,-90.6654,40.0,1111122 
LUMCON,ioos:station:LUMCON:105:1,2010-10-15T18:00:00Z,29.1874,-90.6654,34.3,1111122 
LUMCON,ioos:station:LUMCON:105:1,2010-10-15T19:00:00Z,29.1874,-90.6654,33.6,1111122 
LUMCON,ioos:station:LUMCON:105:1,2010-10-15T20:00:00Z,29.1874,-90.6654,36.2,1111122 
LUMCON,ioos:station:LUMCON:105:1,2010-10-15T21:00:00Z,29.1874,-90.6654,39.6,1111122 
LUMCON,ioos:station:LUMCON:105:1,2010-10-15T22:00:00Z,29.1874,-90.6654,39.1,1111122 
LUMCON,ioos:station:LUMCON:105:1,2010-10-15T23:00:00Z,29.1874,-90.6654,40.6,1111122 
LUMCON,ioos:station:LUMCON:105:1,2010-10-16T00:00:00Z,29.1874,-90.6654,51.0,1111122 
LUMCON,ioos:station:LUMCON:105:1,2010-10-16T01:00:00Z,29.1874,-90.6654,56.6,1111122 
LUMCON,ioos:station:LUMCON:105:1,2010-10-16T02:00:00Z,29.1874,-90.6654,62.7,1111122 
LUMCON,ioos:station:LUMCON:105:1,2010-10-16T03:00:00Z,29.1874,-90.6654,67.2,1111122 
LUMCON,ioos:station:LUMCON:105:1,2010-10-16T04:00:00Z,29.1874,-90.6654,70.7,1111122 
LUMCON,ioos:station:LUMCON:105:1,2010-10-16T05:00:00Z,29.1874,-90.6654,72.5,1111122 
LUMCON,ioos:station:LUMCON:105:1,2010-10-16T06:00:00Z,29.1874,-90.6654,73.0,1111122 
LUMCON,ioos:station:LUMCON:105:1,2010-10-16T07:00:00Z,29.1874,-90.6654,73.9,1111122 
LUMCON,ioos:station:LUMCON:105:1,2010-10-16T08:00:00Z,29.1874,-90.6654,76.8,1111122 
LUMCON,ioos:station:LUMCON:105:1,2010-10-16T09:00:00Z,29.1874,-90.6654,80.8,1111122 
LUMCON,ioos:station:LUMCON:105:1,2010-10-16T10:00:00Z,29.1874,-90.6654,80.8,1111122 
LUMCON,ioos:station:LUMCON:105:1,2010-10-16T11:00:00Z,29.1874,-90.6654,76.7,1111122 
LUMCON,ioos:station:LUMCON:105:1,2010-10-16T12:00:00Z,29.1874,-90.6654,79.6,1111122 
LUMCON,ioos:station:LUMCON:105:1,2010-10-16T13:00:00Z,29.1874,-90.6654,76.7,1111122 
LUMCON,ioos:station:LUMCON:105:1,2010-10-16T14:00:00Z,29.1874,-90.6654,71.0,1111122 
LUMCON,ioos:station:LUMCON:105:1,2010-10-16T15:00:00Z,29.1874,-90.6654,67.2,1111122 
LUMCON,ioos:station:LUMCON:105:1,2010-10-16T16:00:00Z,29.1874,-90.6654,62.0,1111122 
LUMCON,ioos:station:LUMCON:105:1,2010-10-16T17:00:00Z,29.1874,-90.6654,55.5,1111122 
LUMCON,ioos:station:LUMCON:105:1,2010-10-16T19:00:00Z,29.1874,-90.6654,37.5,1111122 
LUMCON,ioos:station:LUMCON:105:1,2010-10-16T20:00:00Z,29.1874,-90.6654,42.8,1111122 
LUMCON,ioos:station:LUMCON:105:1,2010-10-16T21:00:00Z,29.1874,-90.6654,47.1,1111122 
LUMCON,ioos:station:LUMCON:105:1,2010-10-16T22:00:00Z,29.1874,-90.6654,53.1,1111122 
LUMCON,ioos:station:LUMCON:105:1,2010-10-16T23:00:00Z,29.1874,-90.6654,59.9,1111122 
LUMCON,ioos:station:LUMCON:105:1,2010-10-17T00:00:00Z,29.1874,-90.6654,66.9,1111122 
LUMCON,ioos:station:LUMCON:105:1,2010-10-17T01:00:00Z,29.1874,-90.6654,68.1,1111122 
LUMCON,ioos:station:LUMCON:105:1,2010-10-17T02:00:00Z,29.1874,-90.6654,69.4,1111122 
LUMCON,ioos:station:LUMCON:105:1,2010-10-17T03:00:00Z,29.1874,-90.6654,70.7,1111122 
LUMCON,ioos:station:LUMCON:105:1,2010-10-17T04:00:00Z,29.1874,-90.6654,74.3,1111122 
LUMCON,ioos:station:LUMCON:105:1,2010-10-17T05:00:00Z,29.1874,-90.6654,78.1,1111122 
LUMCON,ioos:station:LUMCON:105:1,2010-10-17T06:00:00Z,29.1874,-90.6654,80.0,1111122 
LUMCON,ioos:station:LUMCON:105:1,2010-10-17T07:00:00Z,29.1874,-90.6654,80.0,1111122 
LUMCON,ioos:station:LUMCON:105:1,2010-10-17T08:00:00Z,29.1874,-90.6654,83.5,1111122 
LUMCON,ioos:station:LUMCON:105:1,2010-10-17T09:00:00Z,29.1874,-90.6654,82.5,1111122 
LUMCON,ioos:station:LUMCON:105:1,2010-10-17T10:00:00Z,29.1874,-90.6654,85.6,1111122 
LUMCON,ioos:station:LUMCON:105:1,2010-10-17T11:00:00Z,29.1874,-90.6654,85.6,1111122 
LUMCON,ioos:station:LUMCON:105:1,2010-10-17T12:00:00Z,29.1874,-90.6654,88.3,1111122 
LUMCON,ioos:station:LUMCON:105:1,2010-10-17T13:00:00Z,29.1874,-90.6654,85.5,1111122 
LUMCON,ioos:station:LUMCON:105:1,2010-10-17T14:00:00Z,29.1874,-90.6654,79.4,1111122 
LUMCON,ioos:station:LUMCON:105:1,2010-10-17T15:00:00Z,29.1874,-90.6654,75.1,1111122 
LUMCON,ioos:station:LUMCON:105:1,2010-10-17T16:00:00Z,29.1874,-90.6654,72.4,1111122 
LUMCON,ioos:station:LUMCON:105:1,2010-10-17T17:00:00Z,29.1874,-90.6654,58.2,1111122 
LUMCON,ioos:station:LUMCON:105:1,2010-10-18T14:00:00Z,29.1874,-90.6654,72.0,1111122 
LUMCON,ioos:station:LUMCON:105:1,2010-10-18T15:00:00Z,29.1874,-90.6654,63.5,1111122 
LUMCON,ioos:station:LUMCON:105:1,2010-10-18T17:00:00Z,29.1874,-90.6654,53.9,1111122 
LUMCON,ioos:station:LUMCON:105:1,2010-10-18T18:00:00Z,29.1874,-90.6654,48.0,1111122 
LUMCON,ioos:station:LUMCON:105:1,2010-10-18T19:00:00Z,29.1874,-90.6654,48.0,1111122 
LUMCON,ioos:station:LUMCON:105:1,2010-10-18T20:00:00Z,29.1874,-90.6654,46.2,1111122 
LUMCON,ioos:station:LUMCON:105:1,2010-10-18T21:00:00Z,29.1874,-90.6654,44.1,1111122 
LUMCON,ioos:station:LUMCON:105:1,2010-10-18T22:00:00Z,29.1874,-90.6654,50.6,1111122 
LUMCON,ioos:station:LUMCON:105:1,2010-10-18T23:00:00Z,29.1874,-90.6654,56.0,1111122 
LUMCON,ioos:station:LUMCON:105:1,2010-10-19T00:00:00Z,29.1874,-90.6654,58.5,1111122 
LUMCON,ioos:station:LUMCON:105:1,2010-10-19T01:00:00Z,29.1874,-90.6654,55.2,1111122 
LUMCON,ioos:station:LUMCON:105:1,2010-10-19T02:00:00Z,29.1874,-90.6654,49.4,1111122 
LUMCON,ioos:station:LUMCON:105:1,2010-10-19T03:00:00Z,29.1874,-90.6654,50.4,1111122 
LUMCON,ioos:station:LUMCON:105:1,2010-10-19T04:00:00Z,29.1874,-90.6654,55.8,1111122 
LUMCON,ioos:station:LUMCON:105:1,2010-10-19T05:00:00Z,29.1874,-90.6654,57.6,1111122 
LUMCON,ioos:station:LUMCON:105:1,2010-10-19T06:00:00Z,29.1874,-90.6654,61.4,1111122 
LUMCON,ioos:station:LUMCON:105:1,2010-10-19T07:00:00Z,29.1874,-90.6654,65.8,1111122 
LUMCON,ioos:station:LUMCON:105:1,2010-10-19T08:00:00Z,29.1874,-90.6654,75.6,1111122 
LUMCON,ioos:station:LUMCON:105:1,2010-10-19T09:00:00Z,29.1874,-90.6654,77.5,1111122 
LUMCON,ioos:station:LUMCON:105:1,2010-10-19T18:00:00Z,29.1874,-90.6654,48.6,1111122 
LUMCON,ioos:station:LUMCON:105:1,2010-10-19T19:00:00Z,29.1874,-90.6654,47.3,1111122 
LUMCON,ioos:station:LUMCON:105:1,2010-10-19T20:00:00Z,29.1874,-90.6654,46.7,1111122 
LUMCON,ioos:station:LUMCON:105:1,2010-10-19T21:00:00Z,29.1874,-90.6654,43.8,1111122 
LUMCON,ioos:station:LUMCON:105:1,2010-10-19T22:00:00Z,29.1874,-90.6654,47.8,1111122 
LUMCON,ioos:station:LUMCON:105:1,2010-10-19T23:00:00Z,29.1874,-90.6654,53.9,1111122 
LUMCON,ioos:station:LUMCON:105:1,2010-10-20T00:00:00Z,29.1874,-90.6654,60.0,1111122 
LUMCON,ioos:station:LUMCON:105:1,2010-10-20T01:00:00Z,29.1874,-90.6654,62.7,1111122 
LUMCON,ioos:station:LUMCON:105:1,2010-10-20T02:00:00Z,29.1874,-90.6654,65.1,1111122 
LUMCON,ioos:station:LUMCON:105:1,2010-10-20T03:00:00Z,29.1874,-90.6654,67.2,1111122 
LUMCON,ioos:station:LUMCON:105:1,2010-10-20T16:00:00Z,29.1874,-90.6654,71.2,1111122 
LUMCON,ioos:station:LUMCON:105:1,2010-10-20T17:00:00Z,29.1874,-90.6654,65.7,1111122 
LUMCON,ioos:station:LUMCON:105:1,2010-10-20T18:00:00Z,29.1874,-90.6654,62.8,1111122 
LUMCON,ioos:station:LUMCON:105:1,2010-10-20T19:00:00Z,29.1874,-90.6654,62.2,1111122 
LUMCON,ioos:station:LUMCON:105:1,2010-10-20T20:00:00Z,29.1874,-90.6654,61.9,1111122 
LUMCON,ioos:station:LUMCON:105:1,2010-10-20T21:00:00Z,29.1874,-90.6654,63.1,1111122 
LUMCON,ioos:station:LUMCON:105:1,2010-10-20T22:00:00Z,29.1874,-90.6654,67.9,1111122 
LUMCON,ioos:station:LUMCON:105:1,2010-10-20T23:00:00Z,29.1874,-90.6654,76.1,1111122 
LUMCON,ioos:station:LUMCON:105:1,2010-10-21T00:00:00Z,29.1874,-90.6654,80.9,1111122 
LUMCON,ioos:station:LUMCON:105:1,2010-10-21T01:00:00Z,29.1874,-90.6654,80.4,1111122 
LUMCON,ioos:station:LUMCON:105:1,2010-10-21T02:00:00Z,29.1874,-90.6654,81.8,1111122 
LUMCON,ioos:station:LUMCON:105:1,2010-10-21T03:00:00Z,29.1874,-90.6654,83.3,1111122 
LUMCON,ioos:station:LUMCON:105:1,2010-10-21T04:00:00Z,29.1874,-90.6654,84.9,1111122 
LUMCON,ioos:station:LUMCON:105:1,2010-10-21T05:00:00Z,29.1874,-90.6654,87.5,1111122 
LUMCON,ioos:station:LUMCON:105:1,2010-10-21T06:00:00Z,29.1874,-90.6654,85.8,1111122 
LUMCON,ioos:station:LUMCON:105:1,2010-10-21T07:00:00Z,29.1874,-90.6654,89.0,1111122 
LUMCON,ioos:station:LUMCON:105:1,2010-10-21T08:00:00Z,29.1874,-90.6654,89.0,1111122 
LUMCON,ioos:station:LUMCON:105:1,2010-10-21T09:00:00Z,29.1874,-90.6654,87.9,1111122 
LUMCON,ioos:station:LUMCON:105:1,2010-10-21T10:00:00Z,29.1874,-90.6654,86.2,1111122 
LUMCON,ioos:station:LUMCON:105:1,2010-10-21T11:00:00Z,29.1874,-90.6654,87.3,1111122 
LUMCON,ioos:station:LUMCON:105:1,2010-10-21T12:00:00Z,29.1874,-90.6654,87.8,1111122 
LUMCON,ioos:station:LUMCON:105:1,2010-10-21T13:00:00Z,29.1874,-90.6654,88.9,1111122 
LUMCON,ioos:station:LUMCON:105:1,2010-10-21T14:00:00Z,29.1874,-90.6654,85.7,1111122 
LUMCON,ioos:station:LUMCON:105:1,2010-10-21T15:00:00Z,29.1874,-90.6654,79.1,1111122 
LUMCON,ioos:station:LUMCON:105:1,2010-10-21T16:00:00Z,29.1874,-90.6654,71.7,1111122 
LUMCON,ioos:station:LUMCON:105:1,2010-10-21T18:00:00Z,29.1874,-90.6654,67.9,1111122 
LUMCON,ioos:station:LUMCON:105:1,2010-10-21T19:00:00Z,29.1874,-90.6654,67.9,1111122 
LUMCON,ioos:station:LUMCON:105:1,2010-10-28T14:00:00Z,29.1874,-90.6654,88.1,1111122 
LUMCON,ioos:station:LUMCON:105:1,2010-10-28T15:00:00Z,29.1874,-90.6654,68.2,1111122 
LUMCON,ioos:station:LUMCON:105:1,2010-10-28T16:00:00Z,29.1874,-90.6654,53.6,1111122 
LUMCON,ioos:station:LUMCON:105:1,2010-10-28T17:00:00Z,29.1874,-90.6654,40.4,1111122 
LUMCON,ioos:station:LUMCON:105:1,2010-10-28T18:00:00Z,29.1874,-90.6654,37.8,1111122 
LUMCON,ioos:station:LUMCON:105:1,2010-10-28T19:00:00Z,29.1874,-90.6654,35.7,1111122 
LUMCON,ioos:station:LUMCON:105:1,2010-10-28T20:00:00Z,29.1874,-90.6654,35.1,1111122 
LUMCON,ioos:station:LUMCON:105:1,2010-10-28T21:00:00Z,29.1874,-90.6654,32.2,1111122 
LUMCON,ioos:station:LUMCON:105:1,2010-10-28T22:00:00Z,29.1874,-90.6654,36.2,1111122 
LUMCON,ioos:station:LUMCON:105:1,2010-10-28T23:00:00Z,29.1874,-90.6654,41.3,1111122 
LUMCON,ioos:station:LUMCON:105:1,2010-10-29T00:00:00Z,29.1874,-90.6654,45.1,1111122 
LUMCON,ioos:station:LUMCON:105:1,2010-10-29T01:00:00Z,29.1874,-90.6654,44.0,1111122 
LUMCON,ioos:station:LUMCON:105:1,2010-10-29T02:00:00Z,29.1874,-90.6654,41.5,1111122 
LUMCON,ioos:station:LUMCON:105:1,2010-10-29T03:00:00Z,29.1874,-90.6654,43.6,1111122 
LUMCON,ioos:station:LUMCON:105:1,2010-10-29T04:00:00Z,29.1874,-90.6654,43.5,1111122 
LUMCON,ioos:station:LUMCON:105:1,2010-10-29T05:00:00Z,29.1874,-90.6654,47.0,1111122 
LUMCON,ioos:station:LUMCON:105:1,2010-10-29T06:00:00Z,29.1874,-90.6654,45.9,1111122 
LUMCON,ioos:station:LUMCON:105:1,2010-10-29T07:00:00Z,29.1874,-90.6654,49.6,1111122 
LUMCON,ioos:station:LUMCON:105:1,2010-10-29T08:00:00Z,29.1874,-90.6654,50.8,1111122 
LUMCON,ioos:station:LUMCON:105:1,2010-10-29T09:00:00Z,29.1874,-90.6654,55.0,1111122 
LUMCON,ioos:station:LUMCON:105:1,2010-10-29T10:00:00Z,29.1874,-90.6654,57.7,1111122 
LUMCON,ioos:station:LUMCON:105:1,2010-10-29T11:00:00Z,29.1874,-90.6654,60.0,1111122 
LUMCON,ioos:station:LUMCON:105:1,2010-10-29T12:00:00Z,29.1874,-90.6654,62.0,1111122 
LUMCON,ioos:station:LUMCON:105:1,2010-10-29T13:00:00Z,29.1874,-90.6654,63.2,1111122 
LUMCON,ioos:station:LUMCON:105:1,2010-10-29T14:00:00Z,29.1874,-90.6654,62.4,1111122 
LUMCON,ioos:station:LUMCON:105:1,2010-10-29T15:00:00Z,29.1874,-90.6654,59.2,1111122 
LUMCON,ioos:station:LUMCON:105:1,2010-10-29T16:00:00Z,29.1874,-90.6654,57.4,1111122 
LUMCON,ioos:station:LUMCON:105:1,2010-10-29T17:00:00Z,29.1874,-90.6654,54.6,1111122 
LUMCON,ioos:station:LUMCON:105:1,2010-10-29T18:00:00Z,29.1874,-90.6654,51.2,1111122 